Regional Weather Roundup
Issued by NWS Portland, ME

Home | Current Version | Previous Version | Text Only | Print | Product List | Glossary On
Versions: 1 2 3 4 5 6 7 8 9 10 11 12 13 14 15 16 17 18 19 20 21 22 23 24 25 26 27 28 29 30 31 32 33 34 35 36 37 38 39 40 41 42 43 44 45 46 47 48 49 50
000
ASUS41 KGYX 100310
RWRGYX
WEATHER ROUNDUP FOR MAINE AND NEW HAMPSHIRE
NATIONAL WEATHER SERVICE GRAY ME
1000 PM EST FRI DEC 09 2016

MEZ002-005-006-010-012-015-018-020-021-024-026-027-029-100400-
MAINE

CITY           SKY/WX    TMP DP  RH WIND       PRES   REMARKS
PORTLAND       CLEAR     23   8  52 NW12      30.09R WCI  12
SANFORD        CLEAR     23  10  57 W10       30.11R WCI  12
BAR HARBOR     CLEAR     22  12  65 NW9       30.01R
WISCASSET      CLEAR     25   9  50 VRB6      30.07R
FRYEBURG       PTCLDY    21   8  57 W8        30.07R
LEWISTONAUBURN CLEAR     22  10  60 NW7       30.06R
AUGUSTA        CLEAR     22   9  57 W12G20    30.03R WCI  10
WATERVILLE     CLEAR     23  10  57 W14G24    29.98R WCI  11
BANGOR         CLEAR     21  10  62 NW17G25   30.00R WCI   7
GREENVILLE       N/A     13   5  70 NW10G28   29.89R WCI   0
MILLINOCKET    MOCLDY    18   7  62 NW15G22   29.96R WCI   4
HOULTON        CLOUDY    16  10  77 W3        29.90R
PRESQUE ISLE   FLURRIES  15  10  80 NW9       29.92R
FRENCHVILLE    CLEAR      8  -1  66 NW13G26   29.86R WCI  -8
CARIBOU        PTCLDY    13   3  64 NW15G24   29.89R WCI  -3
$$

NHZ002-005-008-009-011-012-014-100400-
NEW HAMPSHIRE

CITY           SKY/WX    TMP DP  RH WIND       PRES   REMARKS
PORTSMOUTH     PTCLDY    24   7  49 NW8       30.12R
ROCHESTER      CLOUDY    24   6  46 W13G21    30.11R WCI  12
NASHUA         CLEAR     24  11  57 NW9         N/A
MANCHESTER     PTCLDY    25   5  42 NW12G30   30.14R WCI  14
CONCORD        PTCLDY    24   6  46 NW18G26   30.15R WCI  10
LACONIA        FLURRIES  22  10  60 W10       30.12R WCI  11
PLYMOUTH       LGT SNOW  21  14  74 NW10G20   30.12R WCI  10
BERLIN         FLURRIES  18   6  59 NW8       30.03R
WHITEFIELD     CLOUDY    18   4  54 W17       30.08R WCI   3
JAFFREY        MOCLDY    21   4  47 NW8       30.12R
KEENE          PTCLDY    23   8  52 W7        30.18R
LEBANON        CLOUDY    22  10  60 W13       30.16R WCI  10
MT WASHINGTON  SNOW      -8  -8 100 NW74G79     N/A  VSB 0   WCI -47
$$

VTZ005-007-008-100400-
VERMONT

CITY           SKY/WX    TMP DP  RH WIND       PRES   REMARKS
ST JOHNSBURY     N/A     20   7  57 MISG      30.12R
MONTPELIER     LGT SNOW  17  11  77 NW10G17   30.16R WCI   5
BURLINGTON     CLOUDY    22   7  52 N20G26    30.21R WCI   7
$$

MAZ007-012-024-CTZ003-RIZ002-NYZ038-NYZ072-100400-
SOUTHERN NEW ENGLAND AND NY

CITY           SKY/WX    TMP DP  RH WIND       PRES   REMARKS
WORCESTER      PTCLDY    22   6  50 W12       30.12R WCI  10
NANTUCKET      PTCLDY    31  12  45 NW16G24   30.14R WCI  20
PROVIDENCE     CLEAR     27   7  42 NW13      30.19R WCI  16
HARTFORD       PTCLDY    26  10  50 NW14      30.21R WCI  14
ALBANY         PTCLDY    22  13  68 W7        30.25R
NEW YORK CITY  PTCLDY    33  14  45 NW21      30.29R
$$

ANZ081-ANZ082-ANZ150-NHZ014-MEZ023>029-100400-
COASTAL MARINE OBSERVATIONS

STATION/POSITION TIME  TEMP    WIND        PRES    WAVE
                       AIR SEA DIR/SP/G            HT/PER
                 (UTC) (F)     (DEG/KT/KT) (MB)    (FT/S)
MOUNT DESERT ROC 0300   28                 1015.3R
MATINICUS ROCK   0200   28     300/ 28/ 32 1015.7R
ISLE OF SHOALS   0200   27     300/ 26/ 30 1019.1R
JEFFREYS LEDGE   0238      51                N/A     7/ 6
CASHES LEDGE BUO 0250   31 49  290/ 23/ 29 1017.4R   8/ 6
GEORGES BANK BUO 0250   37 50              1015.3R  10/ 8
$$

.............KEY..............
   WCI - WIND CHILL
   TC  - TEMPERATURE IN CELSIUS
   VSB - VISIBILITY IN MILES
   HX  - HEAT INDEX
   FAIR- INDICATES FEW OR NO CLOUDS BELOW 12,000 FT, WITH NO
         SIGNIFICANT WEATHER AND/OR OBSTRUCTIONS TO VISIBILITY.





USA.gov is the U.S. government's official web portal to all federal, state and local government web resources and services.